Regional Weather Roundup
Issued by NWS Grand Forks, ND

Home | Current Version | Previous Version | Text Only | Print | Product List | Glossary On
Versions: 1 2 3 4 5 6 7 8 9 10 11 12 13 14 15 16 17 18 19 20 21 22 23 24 25 26 27 28 29 30 31 32 33 34 35 36 37 38 39 40 41 42 43 44 45 46 47 48 49 50
000
ASUS43 KFGF 281310
RWRFGF
PRAIRIE TO PINES  WEATHER ROUNDUP
NATIONAL WEATHER SERVICE EASTERN NORTH DAKOTA/GRAND FORKS ND
800 AM CDT THU AUG 28 2014

 **SATELLITE DATA USED TO AUGMENT SKY COVER AT AUTOMATED STATIONS**
 *****  WEATHER ACROSS EASTERN NORTH DAKOTA  *****

CITY           SKY/WX    TMP DP  RH WIND       PRES   REMARKS
GRAND FORKS    CLOUDY    63  60  90 S12       29.96F
GRAND FRKS AFB PTSUNNY   62  62 100 S10       29.97S
GRAND FRKS NWS   N/A     63 N/A N/A S14         N/A
DEVILS LAKE    MOSUNNY   63  57  82 S6        29.94S
FARGO          CLOUDY    66  59  78 SE13      29.99S
WAHPETON ARPT  CLOUDY    61  57  88 SE8       30.00S
$$

 ***** WEATHER ACROSS CENTRAL AND WESTERN NORTH DAKOTA  *****

CITY           SKY/WX    TMP DP  RH WIND       PRES   REMARKS
BISMARCK       CLOUDY    62  60  93 CALM      29.96R
MINOT          CLEAR     62  60  93 S9        29.90F FOG
JAMESTOWN      CLOUDY    65  62  90 SE6       29.96S
MINOT AFB      PTCLDY    60  60 100 S6        29.89S FOG
GARRISON         N/A     62  62 100 S5        29.94S
WILLISTON      CLEAR     57  56  96 SW3       29.90S
DICKINSON      MOCLDY    55  53  93 S5        29.94S
HETTINGER      FOG       56  55  97 S3        29.98S VSB 1/4
$$

 *****  OTHER AIRPORT OBSERVATIONS IN OUR AREA  *****

CITY           SKY/WX    TMP DP  RH WIND       PRES   REMARKS
WALHALLA         N/A     59  59 100 CALM      29.95S
GRAFTON AIRPOR FAIR      57  57 100 SE6       29.96S
VALLEY CITY AR CLOUDY    64  64 100 SE7       29.98S FOG
CANDO          FAIR      57  57 100 SE5       29.95S FOG
CAVALIER APRT  FAIR      57  57 100 S6        29.96S
GWINNER        CLOUDY    64  64 100 SE6       29.99S
ROLLA          FAIR      55  55 100 S8        29.95S FOG
 ***** THE ABOVE OBSERVATIONS ARE NON NWS ARE NOT QUALITY
       CONTROLLED AND MAY MIS-REPORT RAIN FOR SNOW...
$$

  *****  WEATHER ACROSS NORTHERN MINNESOTA  *****

CITY           SKY/WX    TMP DP  RH WIND       PRES   REMARKS
FLAG ISLAND    SUNNY     66  61  82 S12       30.01S
WARROAD        SUNNY     57  54  88 S8        30.03S
ROSEAU         MOSUNNY   61  55  82 S9        30.01F
HALLOCK        SUNNY     61  57  88 SE8       29.96F
THF RVR FALLS  PTSUNNY   61  57  88 SE10      30.00F
BAUDETTE       CLOUDY    54  53  97 SE3       30.05S FOG
WASKISH        CLOUDY    57  57 100 CALM      30.06S
CROOKSTON      CLOUDY    63  61  94 SE10      30.00S
$$
  *****  WEATHER ACROSS CENTRAL AND WEST MINNESOTA  *****

CITY           SKY/WX    TMP DP  RH WIND       PRES   REMARKS
FOSSTON        CLOUDY    61  57  88 SE6       30.04S
BEMIDJI        PTSUNNY   58  56  94 SE5       30.06S
PARK RAPIDS    CLOUDY    59  56  89 SE8       30.06S
ELBOW LAKE     FAIR      63  59  87 SE10      30.01F
WADENA         CLOUDY    61  57  88 E3        30.05S
DETROIT LAKES  CLOUDY    61  59  94 SE10      30.04F
MOORHEAD       CLOUDY    66  64  94 S10       30.00S
FERGUS FALLS   PTSUNNY   64  57  77 SE9       30.01F
MORRIS MN      PTSUNNY   64  61  88 SE10      30.01S
STAPLES        CLOUDY    61  55  82 SE3       30.06F
$$
  *****  WEATHER ELSEWHERE ACROSS MINNESOTA  *****

CITY           SKY/WX    TMP DP  RH WIND       PRES   REMARKS
DULUTH         SUNNY     57  52  83 S5        30.12S
INTRNTL FALLS  MOSUNNY   51  51 100 CALM      30.08S FOG
ELY            PTSUNNY   46  46 100 CALM      30.12S FOG
CLOQUET        SUNNY     54  54 100 CALM      30.11S
WHEATON        CLOUDY    59  57  94 E7        30.02S
BRAINERD       PTSUNNY   60  55  83 SE6       30.09R
HIBBING        FOG       50  48  93 CALM      30.12S VSB 1/4
ALEXANDRIA     CLOUDY    61  58  90 SE12      30.06S
SAINT CLOUD    PTSUNNY   62  57  83 E5        30.07F
MINNEAPOLIS    PTSUNNY   64  57  78 SE7       30.09R
$$

  *****  WEATHER ACROSS SOUTH DAKOTA  *****

CITY           SKY/WX    TMP DP  RH WIND       PRES   REMARKS
SIOUX FALLS    LGT RAIN  67  66  97 SE12      29.97S FOG
BROOKINGS      NOT AVBL
WATERTOWN      CLOUDY    66  63  90 SE8       29.98S
HURON          LGT RAIN  67  66  97 E8        29.93F
SISSETON         N/A     63  63 100 S5        29.98S
ABERDEEN       CLOUDY    65  65 100 SE6       29.96S
MITCHELL       RAIN      68  68 100 SE9       29.93S FOG
PIERRE         CLOUDY    67  67 100 E9        29.91F
MOBRIDGE       LGT RAIN  66  66 100 SE5       29.93R
RAPID CITY     CLOUDY    62  59  90 W5        29.99F
$$

  *****  SOME WEATHER IN NEARBY STATES *****

CITY           SKY/WX    TMP DP  RH WIND       PRES   REMARKS
GLASGOW MT     CLEAR     57  53  86 SE6       29.90R
GREAT FALLS MT CLEAR     58  46  64 VRB3      30.01R
CHEYENNE WY    PTCLDY    52  44  74 W12       30.16R
SCOTTSBLUFF NE CLOUDY    60  59  96 W6        30.05R
OMAHA NE       TSTM      71  68  90 SE9       29.97R
DES MOINES IA  LGT RAIN  67  65  93 E10       30.01F FOG
DAVENPORT IA   CLOUDY    67  61  81 SE13      30.10R
CHICAGO IL     MOSUNNY   68  54  60 E13       30.14S
EAU CLAIRE WI  SUNNY     59  52  77 NE5       30.12S
LA CROSSE WI   MOSUNNY   62  58  86 E6        30.11R
$$

  *****  SOME NATIONAL WEATHER *****

CITY           SKY/WX    TMP DP  RH WIND       PRES   REMARKS
LA GUARDIA NY  MOSUNNY   71  56  58 N12       29.91R
RALEIGH NC     PTSUNNY   72  66  81 SW3       30.00R
ATLANTA GA     MOSUNNY   73  66  78 NW5       30.08R
NEW ORLEANS LA PTSUNNY   82  75  79 E3        29.98R
OKLAHOMA CITY  MOSUNNY   72  65  78 S7        29.99R
ALBUQUERQUE NM CLEAR     59  47  64 W5        30.23R
SALT LAKE CITY PTCLDY    59  52  77 SE7       30.21S
LOS ANGELES CA CLEAR     70  55  59 CALM      29.99S
BOISE ID       CLEAR     61  45  55 CALM      30.06R
SEATTLE WA     PTCLDY    59  55  87 S5        30.09S
$$

*** WEATHER ACROSS MANITOBA...SASKATCHEWAN AND ONTARIO ***
                ***ONTARIO***

CITY           SKY/WX    TMP DP  RH WIND       PRES   REMARKS
GERALDTON      SUNNY     48  48 100 CALM      30.14S
THUNDER BAY    MOSUNNY   48  46  93 VRB2      30.15F
SIOUX LOOKOUT  MOSUNNY   57  50  77 S5        30.08S
TORONTO        MOSUNNY   61  50  67 N16G22    30.11R
BIG TROUT LK   CLOUDY    61  54  77 SW10G17   29.86S
PICKLE LAKE    SUNNY     57  50  77 SW10      30.04F
DRYDEN         SUNNY     57  50  77 S10       30.07S
KENORA         MOSUNNY   57  54  88 S7        30.04F
$$
                *** MANITOBA***

CITY           SKY/WX    TMP DP  RH WIND       PRES   REMARKS
BRANDON        MOSUNNY   57  57 100 E3        29.87F FOG
DAUPHIN        SUNNY     66  61  82 N3        29.80S
ISLAND LAKE    NOT AVBL
PILOT MOUND      N/A     57  57 100 S8          N/A
THE PAS        MOCLDY    59  57  94 S2        29.76R
THOMPSON       PTSUNNY   57  57 100 W5        29.73R
WINNIPEG       MOSUNNY   61  57  88 S14       29.94F
LYNN LAKE      MOSUNNY   52  50  93 MISG      29.72F
CHURCHILL      MOSUNNY   55  55 100 W10       29.53R
GILLAM         PTSUNNY   63  61  94 W10       29.67S
$$
                ***SASKATCHEWAN***

CITY           SKY/WX    TMP DP  RH WIND       PRES   REMARKS
ESTEVAN        PTCLDY    61  57  88 SW8       29.87S
KINDERSLEY     MOCLDY    55  54  94 N9        29.90R
LLOYDMINSTER   MOCLDY    55  54  94 SW10      29.89S
PRINCE ALBERT  MOCLDY    57  55  94 W6        29.82S
REGINA         CLEAR     52  52 100 W6        29.84S
YORKTON        CLEAR     57  54  88 S7        29.79F
N. BATTLEFORD  CLOUDY    57  55  94 W10       29.92R
LA RONGE       CLOUDY    54  54 100 CALM      29.76S
SASKATOON      MOCLDY    57  54  88 NE5       29.86R
SWIFT CURRENT  CLEAR     54  50  87 SW9       29.85R
$$
NOTE: THESE ARE AUTOMATED STATIONS WITH LIMITED QUALITY CONTROL
      "FAIR" INDICATES FEW OR NO CLOUDS BELOW 12,000 FEET WITH NO
      SIGNIFICANT WEATHER AND/OR OBSTRUCTIONS TO VISIBILITY.
      SKY/WX - SKY CONDITION AND SIGNIFICANT WEATHER.
      TMP - AIR TEMPERATURE.    DP   - DEWPOINT TEMPERATURE.
      RH  - RELATIVE HUMIDITY.  PRES - PRESSURE.
      HX  - HEAT INDEX.         WCI  - WIND CHILL INDEX.
$


USA.gov is the U.S. government's official web portal to all federal, state and local government web resources and services.